When you browse on this site, cookies collect data to enhance your experience and personalize the content and advertising you see.
Visit our Privacy Policy to learn more. By continuing to use the site, you agree to this use of cookies and data.
  • In Czech Republic
  • List of Countries
  • For 7 days
  • Water Temperature
  • Weather Map
  • Weather Widgets
  • user-avatar
    Login

    Hourly Weather Escaldes-Engordany

    Today, 28 February, Friday

    Time Temperature Precipitation Wind Pressure Humidity
    00:00 +2°C° 0 mm 3 mps 638 mmHg 94%
    01:00 +2°C° 0.2 mm 3 mps 638 mmHg 95%
    02:00 +3°C° 0.2 mm 2 mps 638 mmHg 95%
    03:00 +4°C° 0.2 mm 1 mps 638 mmHg 95%
    04:00 +4°C° 0.2 mm 1 mps 638 mmHg 95%
    05:00 +4°C° 0.2 mm 1 mps 638 mmHg 95%
    06:00 +4°C° 0.2 mm 1 mps 639 mmHg 95%
    07:00 +5°C° 0 mm 1 mps 639 mmHg 90%
    08:00 +6°C° 0 mm 1 mps 640 mmHg 84%
    09:00 +7°C° 0 mm 0 mps 640 mmHg 79%
    10:00 +9°C° 0 mm 1 mps 641 mmHg 74%
    11:00 +10°C° 0 mm 1 mps 641 mmHg 69%
    12:00 +11°C° 0 mm 1 mps 641 mmHg 65%
    13:00 +11°C° 0 mm 1 mps 641 mmHg 66%
    14:00 +11°C° 0 mm 1 mps 640 mmHg 68%
    15:00 +11°C° 0 mm 1 mps 640 mmHg 69%
    16:00 +9°C° 0 mm 1 mps 639 mmHg 77%
    17:00 +7°C° 0 mm 2 mps 638 mmHg 85%
    18:00 +5°C° 0 mm 2 mps 637 mmHg 93%
    19:00 +5°C° 0 mm 2 mps 637 mmHg 93%
    20:00 +5°C° 0 mm 2 mps 637 mmHg 94%
    21:00 +4°C° 0 mm 2 mps 637 mmHg 94%
    22:00 +4°C° 0 mm 2 mps 636 mmHg 93%
    23:00 +4°C° 0 mm 2 mps 636 mmHg 92%

    Tomorrow, 29 February, Saturday

    Time Temperature Precipitation Wind Pressure Humidity
    00:00 +4°C° 0 mm 2 mps 635 mmHg 91%
    01:00 +3°C° 0 mm 2 mps 634 mmHg 90%
    02:00 +3°C° 0 mm 2 mps 633 mmHg 89%
    03:00 +2°C° 0 mm 2 mps 632 mmHg 89%
    04:00 +2°C° 0 mm 3 mps 632 mmHg 87%
    05:00 +2°C° 0 mm 3 mps 631 mmHg 86%
    06:00 +2°C° 0 mm 3 mps 631 mmHg 85%
    07:00 +3°C° 0 mm 3 mps 631 mmHg 81%
    08:00 +4°C° 0 mm 3 mps 631 mmHg 77%
    09:00 +5°C° 0 mm 3 mps 632 mmHg 73%
    10:00 +7°C° 0 mm 3 mps 632 mmHg 70%
    11:00 +8°C° 0 mm 3 mps 633 mmHg 66%
    12:00 +9°C° 0 mm 3 mps 633 mmHg 62%
    13:00 +9°C° 0 mm 3 mps 633 mmHg 66%
    14:00 +8°C° 0 mm 2 mps 632 mmHg 69%
    15:00 +7°C° 0 mm 2 mps 632 mmHg 73%
    16:00 +6°C° 0.1 mm 2 mps 632 mmHg 79%
    17:00 +6°C° 0.1 mm 1 mps 631 mmHg 86%
    18:00 +5°C° 0.1 mm 1 mps 631 mmHg 93%
    19:00 +5°C° 0.1 mm 1 mps 632 mmHg 93%
    20:00 +5°C° 0.1 mm 1 mps 632 mmHg 94%
    21:00 +4°C° 0.1 mm 1 mps 632 mmHg 95%
    22:00 +4°C° 0.2 mm 1 mps 632 mmHg 95%
    23:00 +3°C° 0.2 mm 1 mps 632 mmHg 96%

    Day after tomorrow, 1 March, Sunday

    Time Temperature Precipitation Wind Pressure Humidity
    00:00 +3°C° 0.2 mm 1 mps 632 mmHg 96%
    01:00 +3°C° 0.1 mm 1 mps 632 mmHg 96%
    02:00 +3°C° 0.1 mm 1 mps 632 mmHg 96%
    03:00 +2°C° 0.1 mm 1 mps 632 mmHg 96%
    04:00 +2°C° 0.1 mm 1 mps 631 mmHg 96%
    05:00 +1°C° 0.1 mm 0 mps 631 mmHg 96%
    06:00 0°C° 0.1 mm 0 mps 631 mmHg 96%
    07:00 +2°C° 0.1 mm 1 mps 631 mmHg 92%
    08:00 +2°C° 0.1 mm 2 mps 632 mmHg 87%
    09:00 +2°C° 0.1 mm 2 mps 632 mmHg 83%
    10:00 +3°C° 0 mm 2 mps 632 mmHg 78%
    11:00 +3°C° 0 mm 3 mps 632 mmHg 74%
    12:00 +3°C° 0 mm 3 mps 632 mmHg 70%
    13:00 +3°C° 0 mm 3 mps 631 mmHg 69%
    14:00 +4°C° 0 mm 3 mps 630 mmHg 68%
    15:00 +4°C° 0 mm 3 mps 630 mmHg 67%
    16:00 +4°C° 0.5 mm 2 mps 630 mmHg 77%
    17:00 +3°C° 0.5 mm 2 mps 630 mmHg 86%
    18:00 +3°C° 0.5 mm 1 mps 629 mmHg 95%
    19:00 +2°C° 0 mm 1 mps 630 mmHg 94%
    20:00 +1°C° 0 mm 2 mps 630 mmHg 94%
    21:00 +1°C° 0 mm 2 mps 630 mmHg 93%
    22:00 +1°C° 0 mm 2 mps 630 mmHg 93%
    23:00 +1°C° 0 mm 2 mps 630 mmHg 93%

    2 March, Monday

    Time Temperature Precipitation Wind Pressure Humidity
    00:00 +1°C° 0 mm 2 mps 629 mmHg 92%
    01:00 +1°C° 0.3 mm 2 mps 629 mmHg 93%
    02:00 +1°C° 0.3 mm 2 mps 628 mmHg 94%
    03:00 +2°C° 0.3 mm 2 mps 627 mmHg 95%
    04:00 +1°C° 1.7 mm 2 mps 627 mmHg 96%
    05:00 +2°C° 1.7 mm 1 mps 626 mmHg 97%
    06:00 +2°C° 1.7 mm 1 mps 626 mmHg 98%
    07:00 +2°C° 0.6 mm 1 mps 626 mmHg 96%
    08:00 +2°C° 0.6 mm 1 mps 626 mmHg 95%
    09:00 +2°C° 0.6 mm 2 mps 626 mmHg 93%
    10:00 +2°C° 0.3 mm 2 mps 626 mmHg 90%
    11:00 +3°C° 0.3 mm 2 mps 627 mmHg 87%
    12:00 +4°C° 0.3 mm 2 mps 627 mmHg 84%
    13:00 +3°C° 1 mm 2 mps 627 mmHg 85%
    14:00 +3°C° 1 mm 2 mps 626 mmHg 86%
    15:00 +2°C° 1 mm 2 mps 626 mmHg 87%
    16:00 +1°C° 0.1 mm 2 mps 626 mmHg 89%
    17:00 -1°C° 0.1 mm 2 mps 626 mmHg 90%
    18:00 -2°C° 0.1 mm 2 mps 626 mmHg 92%
    19:00 -2°C° 0.5 mm 2 mps 626 mmHg 92%
    20:00 -4°C° 0.5 mm 3 mps 627 mmHg 92%
    21:00 -4°C° 0.5 mm 3 mps 627 mmHg 92%
    22:00 -5°C° 0.6 mm 3 mps 628 mmHg 92%
    23:00 -5°C° 0.6 mm 3 mps 628 mmHg 92%

    3 March, Tuesday

    Time Temperature Precipitation Wind Pressure Humidity
    00:00 -6°C° 0.6 mm 3 mps 629 mmHg 92%
    01:00 -6°C° 0.4 mm 3 mps 629 mmHg 92%
    02:00 -5°C° 0.4 mm 2 mps 629 mmHg 92%
    03:00 -5°C° 0.4 mm 2 mps 630 mmHg 92%
    04:00 -5°C° 0.6 mm 2 mps 630 mmHg 92%
    05:00 -5°C° 0.6 mm 2 mps 630 mmHg 92%
    06:00 -5°C° 0.6 mm 2 mps 631 mmHg 91%
    07:00 -5°C° 0.5 mm 3 mps 632 mmHg 87%
    08:00 -4°C° 0.5 mm 3 mps 633 mmHg 83%
    09:00 -2°C° 0.5 mm 3 mps 633 mmHg 78%
    10:00 -1°C° 0.1 mm 3 mps 633 mmHg 75%
    11:00 0°C° 0.1 mm 3 mps 634 mmHg 73%
    12:00 +2°C° 0.1 mm 2 mps 634 mmHg 70%
    13:00 +2°C° 0 mm 2 mps 634 mmHg 69%
    14:00 +4°C° 0 mm 1 mps 633 mmHg 69%
    15:00 +4°C° 0 mm 1 mps 633 mmHg 69%
    16:00 +3°C° 0.2 mm 1 mps 633 mmHg 75%
    17:00 +3°C° 0.2 mm 1 mps 632 mmHg 81%
    18:00 +2°C° 0.2 mm 1 mps 632 mmHg 88%
    19:00 +2°C° 1.5 mm 1 mps 632 mmHg 91%
    20:00 +2°C° 1.5 mm 1 mps 633 mmHg 94%
    21:00 +2°C° 1.5 mm 1 mps 633 mmHg 97%
    22:00 +3°C° 1.3 mm 1 mps 633 mmHg 98%
    23:00 +3°C° 1.3 mm 1 mps 632 mmHg 98%

    4 March, Wednesday

    Time Temperature Precipitation Wind Pressure Humidity
    00:00 +4°C° 1.3 mm 1 mps 632 mmHg 98%
    01:00 +4°C° 1.3 mm 1 mps 632 mmHg 98%
    02:00 +4°C° 1.3 mm 1 mps 632 mmHg 98%
    03:00 +4°C° 1.3 mm 1 mps 632 mmHg 98%
    04:00 +4°C° 0.8 mm 1 mps 632 mmHg 98%
    05:00 +4°C° 0.8 mm 1 mps 632 mmHg 97%
    06:00 +5°C° 0.8 mm 1 mps 632 mmHg 97%
    07:00 +5°C° 0.4 mm 1 mps 632 mmHg 96%
    08:00 +6°C° 0.4 mm 1 mps 633 mmHg 95%
    09:00 +7°C° 0.4 mm 1 mps 633 mmHg 94%
    10:00 +8°C° 0.2 mm 1 mps 633 mmHg 91%
    11:00 +9°C° 0.2 mm 1 mps 634 mmHg 89%
    12:00 +10°C° 0.2 mm 1 mps 634 mmHg 87%
    13:00 +9°C° 0.1 mm 1 mps 633 mmHg 88%
    14:00 +9°C° 0.1 mm 1 mps 633 mmHg 89%
    15:00 +8°C° 0.1 mm 2 mps 632 mmHg 90%
    16:00 +7°C° 0 mm 2 mps 632 mmHg 92%
    17:00 +6°C° 0 mm 2 mps 631 mmHg 94%
    18:00 +6°C° 0 mm 2 mps 631 mmHg 96%
    19:00 +5°C° 0 mm 2 mps 630 mmHg 96%
    20:00 +5°C° 0 mm 2 mps 630 mmHg 96%
    21:00 +4°C° 0 mm 2 mps 629 mmHg 97%
    22:00 +4°C° 0.1 mm 2 mps 629 mmHg 97%
    23:00 +4°C° 0.1 mm 2 mps 628 mmHg 97%
    Show more